Weather Roundup
Issued by NWS

Home | Current Version | Previous Version | Text Only | Print | Product List | Glossary On
Versions: 1 2 3 4 5 6 7 8 9 10 11 12 13 14 15 16 17 18 19 20 21 22 23 24 25 26 27 28 29 30 31 32 33 34 35 36 37 38 39 40 41 42 43 44 45 46 47 48 49 50
760
NZUS93 KARX 240810
HRRWXR

CURRENT HOURLY OBSERVATIONS ACROSS
MUCH OF THE UPPER MISSISSIPPI VALLEY
NATIONAL WEATHER SERVICE LA CROSSE WI
300 AM CDT MON APR 24 2017


...SOUTHEAST MINNESOTA...


CITY           SKY/WX    TMP DP  RH WIND       PRES   REMARKS
ROCHESTER      CLEAR     49  35  58 S10       29.89F
ROCHESTER/MAYO FAIR      54  33  46 SE9       29.89F
WINONA         CLEAR     50  36  57 SE6       29.92S
AUSTIN         PTCLDY    50  34  53 S6        29.89F
ALBERT LEA     CLOUDY    52  32  46 S8        29.87F
DODGE CENTER   PTCLDY    50  36  57 S12       29.88F
PRESTON        CLEAR     49  32  52 S8        29.92F
OWATONNA       PTCLDY    54  34  47 S13       29.86F
FARIBAULT      CLOUDY    54  36  50 S6        29.86S
$$

...ELSEWHERE IN MINNESOTA...


CITY           SKY/WX    TMP DP  RH WIND       PRES   REMARKS
MINNEAPOLIS    CLOUDY    50  39  66 E3        29.84F
INTNL FALLS    LGT SNOW  32  27  81 E10       30.00S WCI  24
DULUTH         CLOUDY    31  27  85 E29G35    29.95F WCI  16
RED WING       CLOUDY    57  30  35 S5        29.86S
REDWOOD FALLS  CLOUDY    52  33  48 S13       29.75F
MANKATO        MOCLDY    54  33  45 S10       29.83F
WORTHINGTON    PTCLDY    52  32  46 S16       29.78F
FAIRMONT       CLOUDY    49  35  58 S13       29.83F
$$

...SOUTHWEST WISCONSIN...


CITY           SKY/WX    TMP DP  RH WIND       PRES   REMARKS
LA CROSSE      CLEAR     51  42  71 E12       29.93F
PRAIRIE DU CHI CLEAR     47  35  62 SE3       29.95F
BOSCOBEL       CLEAR     45  40  82 NE3       29.97F
LONE ROCK      CLEAR     43  38  82 E9        29.98F
PLATTEVILLE    CLEAR     52  34  50 CALM      29.97F
FORT MC COY    CLEAR     42  38  86 E9        29.98F
CAMP DOUGLAS   PTCLDY    38  35  86 E9        30.01S WCI  32
MAUSTON-NEW LI SUNNY     40  36  87 E5        30.01S
VIROQUA        FAIR      45  40  84 E9        29.96F
WIS DELLS      CLEAR     37  34  89 NE6       30.00F WCI  33
$$

...ELSEWHERE IN WISCONSIN...


CITY           SKY/WX    TMP DP  RH WIND       PRES   REMARKS
MILWAUKEE      PTCLDY    40  35  83 N8        30.03F WCI  34
MADISON        CLEAR     37  33  85 E5        30.01F WCI  33
GREEN BAY      CLEAR     37  30  75 E9        30.06F WCI  30
EAU CLAIRE     CLOUDY    44  38  79 SE14G20   29.93F
BLACK RVR FLS  FAIR      42  37  79 E8        29.98S
MEDFORD        PTCLDY    34  29  82 SE9G17    29.98F WCI  27
WAUSAU         PTCLDY    34  26  72 SE12      30.01F WCI  25
WIS RAPIDS     CLOUDY    36  29  75 E7        30.03F WCI  30
MARSHFIELD     CLOUDY    36  30  79 E12       29.99F WCI  28
RICE LAKE      CLOUDY    44  38  79 SE15G22   29.93F
$$

...NORTHEAST IOWA...


CITY           SKY/WX    TMP DP  RH WIND       PRES   REMARKS
WATERLOO       CLEAR     52  32  46 S9        29.92F
DUBUQUE        CLEAR     49  33  54 S3        29.97F
DECORAH        CLEAR     52  32  46 S7        29.92F
MASON CITY     PTCLDY    43  34  70 S8        29.90F
CHARLES CITY   CLEAR     48  32  53 S9        29.92F
OELWEIN        CLEAR     46  36  66 SE8       29.94F
$$

...ELSEWHERE IN IOWA...


CITY           SKY/WX    TMP DP  RH WIND       PRES   REMARKS
DES MOINES     MOCLDY    50  33  52 S7        29.92F
IOWA CITY      CLEAR     45  35  68 CALM      29.96F
FORT DODGE     CLOUDY    54  30  40 S10       29.88F
MARSHALLTOWN   CLEAR     49  33  54 S7        29.92F
CEDAR RAPIDS   CLEAR     48  32  53 SE3       29.94F
$$

...NORTHERN ILLINOIS...


CITY           SKY/WX    TMP DP  RH WIND       PRES   REMARKS
CHICAGO-OHARE  PTCLDY    42  37  82 NE5       30.01F
CHICAGO-MIDWAY PTCLDY    44  39  82 N5        30.01F
MOLINE         CLEAR     41  35  79 CALM      29.97F
ROCKFORD       PTCLDY    47  37  68 E5        30.02F
PEORIA         CLEAR     48  27  44 E3        29.99F
$$

NOTE: "FAIR" INDICATES FEW OR NO CLOUDS BELOW 12,000 FEET WITH NO
SIGNIFICANT WEATHER AND/OR OBSTRUCTIONS TO VISIBILITY. WIND
SPEEDS ARE IN MILES-PER-HOUR.




USA.gov is the U.S. government's official web portal to all federal, state and local government web resources and services.